Retour au catalogue

STARLINK-32842

ActifCommunicationsVLEO
NORAD 62822·PAYLOAD·🇺🇸 United States

Lancé Jan 24, 2025 depuis Vandenberg Space Force Base

Loading…

Prochains Passages (prochaines 24 heures)

TLE

FraisSource: CelesTrak SupGP

Époque: Sep 15, 2026, 02:47 UTC

1 62822C 25018S   26258.11645833 -.00062287  00000+0 -18417-2 0  2587
2 62822  53.1568 146.5505 0001336  86.8134 334.3965 15.34397361    15

Suivez STARLINK-32842 en temps réel avec AllMySat

Download on the App Store